sat.trackr.live / text

‹ back to catalog

2026-052E

NORAD 68202 · 2026-052E

PAYLOAD ACTIVE UNKNOWN

§ Identity

Operator
Country
PRC
Launch date
2026-03-16
Launch site
JSC
Launch vehicle
Mass (kg)
RCS (m²)

External: N2YO · Heavens-Above · Gunter

§ Orbital elements

Epoch: 2026-05-25T03:54:22.959072Z

Period
95.30 min
Inclination
97.5326°
Eccentricity
0.0012090
Mean motion
15.11091910 rev/d
Perigee alt
524.5 km
Apogee alt
541.2 km
Semi-major
6,911.0 km
B*
3.5275e-4
RAAN
220.3454°
Arg perigee
38.4090°
Mean anomaly
321.7998°
Rev number
1,057

§ Raw data

2026-052E1 68202U 26052E   26145.16276573  .00005852  00000+0  35275-3 0  99922 68202  97.5326 220.3454 0012090  38.4090 321.7998 15.11091910 10578

JSON: /api/v1/satellites/68202 · /tle

For live sub-satellite position, see the globe view (requires WebGL).

§ Visibility from observer

Set your observer location to see the next 7 days of passes ≥ 10°. The values pass through the URL so the page stays shareable.

No JS? Fill the form by hand. The geolocation button needs JavaScript.